Wilmington, OH

8:25 PM EDT on May 29, 2017 (GMT -0400)
Airborne

Weather History for KILN - December, 2012

Change the Weather History Date:

Wednesday, December 12, 2012

  Actual Average (KFFO) Record (KFFO)
Temperature  
Mean Temperature 30 °F -  
Max Temperature 39 °F 40 °F 69 °F (2015)
Min Temperature 21 °F 26 °F 3 °F (2013)
Degree Days  
Heating Degree Days 35    
Moisture  
Dew Point 24 °F    
Average Humidity 77    
Maximum Humidity 96    
Minimum Humidity 53    
Precipitation  
Precipitation 0.01 in - - ()
Sea Level Pressure  
Sea Level Pressure 30.42 in    
Wind  
Wind Speed 3 mph (SE)    
Max Wind Speed 6 mph    
Max Gust Speed -    
Visibility 9 miles    
Events      
Averages and records for this station are not official NWS values.
T = Trace of Precipitation, MM = Missing Value Source: NWS Daily Summary

Daily Weather History Graph

Daily Weather History Graph

Search for Another Location

Airport or City:

Trip Planner

Search our weather history database for the weather conditions in past years. The results will help you decide how hot, cold, wet, or windy it might be!

Date:

Astronomy

Dec. 12, 2012 Rise Set
Actual Time 7:46 AM EST 5:11 PM EST
Civil Twilight 7:16 AM EST 5:42 PM EST
Nautical Twilight 6:42 AM EST 6:15 PM EST
Astronomical Twilight 6:09 AM EST 6:48 PM EST
Moon 6:49 AM EST (12/12) 4:47 PM EST (12/12)
Length of Visible Light 10h 25m
Length of Day
9h 25m
Waning Crescent, 1% of the Moon is Illuminated
Dec 12
Waning Crescent
Dec 13
New
Dec 20
First Quarter
Dec 28
Full
Jan 4
Last Quarter

Hourly Weather History & Observations

Time (EST) Temp. Windchill Dew Point Humidity Pressure Visibility Wind Dir Wind Speed Gust Speed Precip Events Conditions
12:54 AM 24.1 °F 17.0 °F 21.0 °F 88% 30.33 in 10.0 mi SSW 5.8 mph - N/A   Clear
1:54 AM 25.0 °F 19.3 °F 21.0 °F 85% 30.34 in 10.0 mi SW 4.6 mph - N/A   Clear
2:54 AM 26.1 °F - 21.9 °F 84% 30.34 in 10.0 mi Calm Calm - N/A   Clear
3:54 AM 24.1 °F - 21.0 °F 88% 30.37 in 10.0 mi Calm Calm - N/A   Clear
4:54 AM 24.1 °F - 19.9 °F 84% 30.39 in 9.0 mi Calm Calm - N/A   Clear
5:54 AM 23.0 °F - 21.0 °F 92% 30.40 in 8.0 mi Calm Calm - N/A   Clear
6:54 AM 21.9 °F 17.2 °F 21.0 °F 96% 30.43 in 6.0 mi South 3.5 mph - N/A   Clear
8:54 AM 28.9 °F 25.2 °F 25.0 °F 85% 30.45 in 6.0 mi South 3.5 mph - 0.01 in   Clear
9:54 AM 32.0 °F 28.7 °F 26.1 °F 79% 30.46 in 9.0 mi South 3.5 mph - N/A   Clear
10:54 AM 35.1 °F 32.2 °F 27.0 °F 72% 30.47 in 10.0 mi South 3.5 mph - N/A   Clear
12:54 PM 37.9 °F 34.4 °F 26.1 °F 62% 30.44 in 10.0 mi ESE 4.6 mph - N/A   Clear
1:54 PM 39.0 °F 35.7 °F 25.0 °F 57% 30.42 in 10.0 mi East 4.6 mph - N/A   Clear
2:54 PM 39.9 °F 37.8 °F 25.0 °F 55% 30.42 in 10.0 mi SSE 3.5 mph - N/A   Clear
3:54 PM 39.9 °F - 24.1 °F 53% 30.42 in 10.0 mi Calm Calm - N/A   Clear
4:54 PM 37.0 °F 34.5 °F 25.0 °F 62% 30.43 in 10.0 mi East 3.5 mph - N/A   Clear
5:54 PM 35.1 °F 32.2 °F 25.0 °F 67% 30.44 in 10.0 mi NE 3.5 mph - N/A   Clear
7:54 PM 32.0 °F 27.5 °F 25.0 °F 75% 30.46 in 10.0 mi East 4.6 mph - N/A   Clear
8:54 PM 30.0 °F 26.5 °F 24.1 °F 79% 30.46 in 10.0 mi ESE 3.5 mph - N/A   Clear
9:54 PM 28.9 °F - 24.1 °F 82% 30.46 in 10.0 mi Calm Calm - N/A   Clear
10:54 PM 27.0 °F 23.0 °F 24.1 °F 89% 30.46 in 10.0 mi East 3.5 mph - N/A   Clear
11:54 PM 28.9 °F 23.9 °F 23.0 °F 78% 30.45 in 10.0 mi NNE 4.6 mph - N/A   Clear